User: anonymous   Login
Location: Unspecified
(0.0000°N, 0.0000°E)
Time: 20:01:22
(UTC+00:00)
Language:

KAITUO 1B - Orbit

View from above orbital plane
View from above orbital plane
View from above satellite
View from above satellite

Ground track
Ground track

The orbit data is extracted from the following two-line orbital elements,

1 40912U 15049P   17269.49722178  .00001698  00000-0  86805-4 0  9995
2 40912  97.4522 275.6986 0014622 203.1068 309.5411 15.17942642111653
Epoch (UTC): 26 September 2017 11:55:59
Eccentricity: 0.0014622
inclination: 97.4522°
perigee height: 502 km
apogee height: 522 km
right ascension of ascending node: 275.6986°
argument of perigee: 203.1068°
revolutions per day: 15.17942642
mean anomaly at epoch: 309.5411°
orbit number at epoch: 11165

The dashed part of the orbit path shows where the satellite is in the earth's shadow,  

DLR